XML Sitemap

This is a XML Sitemap which is supposed to be processed by search engines which follow the XML Sitemap standard like Ask.com, Bing, Google and Yahoo.
It was generated using the WordPress content management system and the Google Sitemap Generator Plugin by Arne Brachhold.
You can find more information about XML sitemaps on sitemaps.org and Google's list of sitemap programs.

URLPriorityChange frequencyLast modified (GMT)
https://100frames.com/33-printable-boise-schools-calendar/50%Daily2019-03-08 03:20
https://100frames.com/35-printable-march-april-calendar/50%Daily2019-03-08 03:20
https://100frames.com/25-free-printable-calendars-oct-2019/50%Daily2019-03-08 03:17
https://100frames.com/33-kids-colorful-calendar-2019-printable/50%Daily2019-03-08 03:15
https://100frames.com/23-november-calendar-cartoon-printable/50%Daily2019-03-08 03:15
https://100frames.com/30-oct-2019-calendar/50%Daily2019-03-08 03:13
https://100frames.com/32-printable-monthly-calendar-2019-2020/50%Daily2019-03-08 03:11
https://100frames.com/16-pregnancy-calendar-by-week-printable/50%Daily2019-03-08 03:10
https://100frames.com/33-free-printable-thankful-calendar/50%Daily2019-03-08 03:08
https://100frames.com/30-free-printable-november-monthly-calendar-2019/50%Daily2019-03-08 03:06
https://100frames.com/33-printable-march-2019-calendar-pdf/50%Daily2019-03-08 03:05
https://100frames.com/35-printable-kids-calendars-2019-2019/50%Daily2019-03-08 03:03
https://100frames.com/23-www-free-printable-calendar-net-april-2019/50%Daily2019-03-08 03:00
https://100frames.com/31-google-calendar-gmail/50%Daily2019-03-08 03:00
https://100frames.com/35-calendar-printables/50%Daily2019-03-08 02:58
https://100frames.com/21-february-2019-printable-calendar-portrait/50%Daily2019-03-08 02:55
https://100frames.com/22-free-printable-calendars-from-waterproof-paper-com/50%Daily2019-03-08 02:54
https://100frames.com/25-c2019-printable-calendar/50%Daily2019-03-08 02:53
https://100frames.com/23-print-calendar-for-november-2019/50%Daily2019-03-08 02:51
https://100frames.com/23-2019-printable-calendar-pages/50%Daily2019-03-08 02:50
https://100frames.com/35-february-march-calendar-2019/50%Daily2019-03-08 02:49
https://100frames.com/30-daylight-savings-2019-usa/50%Daily2019-03-08 02:47
https://100frames.com/25-calendar-free-printable-november-2019/50%Daily2019-03-08 02:45
https://100frames.com/31-free-printable-verticle-monthly-calendars-2019/50%Daily2019-03-08 02:46
https://100frames.com/31-printable-calendar-ini/50%Daily2019-03-08 02:43
https://100frames.com/31-printable-september-2019-calendar-5x7-size/50%Daily2019-03-08 02:40
https://100frames.com/33-calendar-for-may-and-june-2019/50%Daily2019-03-08 02:40
https://100frames.com/31-nashville-scene-music-calendar/50%Daily2019-03-08 02:37
https://100frames.com/31-free-2019-printable-monthly-calendar-template/50%Daily2019-03-08 02:35
https://100frames.com/21-printable-2-month-calendar/50%Daily2019-03-08 02:35
https://100frames.com/33-blank-printable-calendar-january-2019/50%Daily2019-03-08 02:33
https://100frames.com/32-online-printable-monthly-calendar/50%Daily2019-03-08 02:30
https://100frames.com/35-weight-loss-year-at-a-glance-calendar-printable/50%Daily2019-03-08 02:30
https://100frames.com/30-march-2019-printable-calendar-australia/50%Daily2019-03-08 02:28
https://100frames.com/34-family-calendar-template/50%Daily2019-03-08 02:26
https://100frames.com/34-bengali-calendar-february-2019/50%Daily2019-03-08 02:26
https://100frames.com/34-advent-calendar-candles-black-and-white-printable/50%Daily2019-03-08 02:21
https://100frames.com/30-asylum-2-calendar-printable/50%Daily2019-03-08 02:20
https://100frames.com/30-ks-du-calendar-raffle/50%Daily2019-03-08 02:17
https://100frames.com/32-2019-budget-calendar-printable/50%Daily2019-03-08 02:15
https://100frames.com/32-view-shared-calendar-on-iphone/50%Daily2019-03-08 02:15
https://100frames.com/30-free-printable-birthday-calendars-with-multiple-days/50%Daily2019-03-08 02:12
https://100frames.com/24-free-printable-calendar-nov-2019/50%Daily2019-03-08 02:10
https://100frames.com/31-cute-august-2019-printable-calendar/50%Daily2019-03-08 02:10
https://100frames.com/31-january-2019-weekly-calendar-printable/50%Daily2019-03-08 02:08
https://100frames.com/30-free-printable-blank-calendar-2019-pdf/50%Daily2019-03-08 02:06
https://100frames.com/32-a5-printable-desk-calendar-2019/50%Daily2019-03-08 02:05
https://100frames.com/35-week-by-week-calendar/50%Daily2019-03-08 02:04
https://100frames.com/35-free-e-printable-calendars/50%Daily2019-03-08 02:01
https://100frames.com/31-westword-music-calendar/50%Daily2019-03-08 02:00
https://100frames.com/34-snapfish-printable-calendars/50%Daily2019-03-08 01:58
https://100frames.com/16-underwater-dogs-calendar-2019/50%Daily2019-03-08 01:56
https://100frames.com/19-june-2019-printable-calendar-with-notes/50%Daily2019-03-08 01:55
https://100frames.com/24-print-calendar-for-january-2019/50%Daily2019-03-08 01:53
https://100frames.com/32-printable-modern-advent-calendar-box/50%Daily2019-03-08 01:51
https://100frames.com/31-printable-weekly-meal-planner-calendar/50%Daily2019-03-08 01:52
https://100frames.com/35-printable-reading-calendar/50%Daily2019-03-08 01:50
https://100frames.com/30-february-2019-calendar-page/50%Daily2019-03-08 01:48
https://100frames.com/25-online-printable-weekly-calendar-2019/50%Daily2019-03-08 01:46
https://100frames.com/33-printable-weird-holiday-calendar/50%Daily2019-03-08 01:46
https://100frames.com/31-big-calendar-printable/50%Daily2019-03-08 01:44
https://100frames.com/32-nsu-calendar-2019/50%Daily2019-03-08 01:42
https://100frames.com/35-printable-blank-calendar-page-pdf/50%Daily2019-03-08 01:41
https://100frames.com/22-2019-calendar-printable-with-holidays-malaysia/50%Daily2019-03-08 01:39
https://100frames.com/12-large-printable-calendar-2019-uk/50%Daily2019-03-08 01:37
https://100frames.com/30-printable-month-calendar-pdf/50%Daily2019-03-08 01:36
https://100frames.com/31-days-of-the-year-calendar-2019-printable/50%Daily2019-03-08 01:36
https://100frames.com/30-printable-desk-calendar-dec-2019/50%Daily2019-03-08 01:33
https://100frames.com/35-20014-calendar-printable/50%Daily2019-03-08 01:31
https://100frames.com/34-blank-july-calendar-free/50%Daily2019-03-08 01:31
https://100frames.com/30-january-2019-hourly-calendar-printable/50%Daily2019-03-08 01:28
https://100frames.com/32-large-bold-printable-calendar/50%Daily2019-03-08 01:26
https://100frames.com/35-sync-iphone-calendar-with-mac/50%Daily2019-03-08 01:25
https://100frames.com/32-memorial-day-2019/50%Daily2019-03-08 01:23
https://100frames.com/32-cute-free-printable-2019-calendar-with-holidays/50%Daily2019-03-08 01:20
https://100frames.com/35-daily-planner-template-excel/50%Daily2019-03-08 01:20
https://100frames.com/31-floral-calendar-2019-printable/50%Daily2019-03-08 01:17
https://100frames.com/35-texas-child-custody-calendar-2019/50%Daily2019-03-08 01:18
https://100frames.com/34-calendar-365-com/50%Daily2019-03-08 01:14
https://100frames.com/35-a-printable-monthly-calendar/50%Daily2019-03-08 01:11
https://100frames.com/30-jewish-calendar-5776-printable/50%Daily2019-03-08 01:11
https://100frames.com/35-printable-jan-2019-calendar/50%Daily2019-03-08 01:08
https://100frames.com/32-free-printable-calendar-templates-blank/50%Daily2019-03-08 01:05
https://100frames.com/35-may-2019-calendar-printable-with-holidays/50%Daily2019-03-08 01:05
https://100frames.com/30-calendar-2019-august-september/50%Daily2019-03-08 01:03
https://100frames.com/32-free-online-printable-advent-calendar/50%Daily2019-03-08 01:01
https://100frames.com/35-free-printable-wedding-calendar/50%Daily2019-03-08 01:01
https://100frames.com/35-calendar-feb-2019-printable/50%Daily2019-03-08 00:58
https://100frames.com/32-free-printable-for-kids-calendar/50%Daily2019-03-08 00:56
https://100frames.com/32-montly-menu-calendar-free-printable/50%Daily2019-03-08 00:55
https://100frames.com/30-fine-weeks-nasionalis/50%Daily2019-03-08 00:52
https://100frames.com/30-printable-march-2019-calendar-uk/50%Daily2019-03-08 00:51
https://100frames.com/33-february-2019-printable-calendar-holidays/50%Daily2019-03-08 00:49
https://100frames.com/32-cbu-academic-calendar/50%Daily2019-03-08 00:46
https://100frames.com/32-free-printable-calendar-for-teacher-binder/50%Daily2019-03-08 00:45
https://100frames.com/33-chinese-lunar-calendar-for-baby-gender/50%Daily2019-03-08 00:44
https://100frames.com/30-march-2019-printable-calendar-word/50%Daily2019-03-08 00:41
https://100frames.com/33-print-blank-calendar/50%Daily2019-03-08 00:41
https://100frames.com/31-printable-calendar-with-holidays-and-pictures/50%Daily2019-03-08 00:38
https://100frames.com/32-blank-printable-calendar-picture/50%Daily2019-03-08 00:36
https://100frames.com/33-january-2019-printable-calendar-vertex42/50%Daily2019-03-08 00:35
https://100frames.com/33-april-may-2019-printable-calendar/50%Daily2019-03-08 00:32
https://100frames.com/32-printable-daily-devotional-calendar/50%Daily2019-03-08 00:31
https://100frames.com/30-calendar-template-for-august-2019/50%Daily2019-03-08 00:29
https://100frames.com/30-ccsd-2019-2020-calendar/50%Daily2019-03-08 00:27
https://100frames.com/32-fiona-calendar-2019/50%Daily2019-03-08 00:25
https://100frames.com/35-free-printable-advent-calendar-numbers/50%Daily2019-03-08 00:25
https://100frames.com/31-free-weekly-calendar-printable-2019/50%Daily2019-03-08 00:22
https://100frames.com/33-framed-dry-erase-calendar/50%Daily2019-03-08 00:20
https://100frames.com/35-list-of-holidays-in-december-2019/50%Daily2019-03-08 00:20
https://100frames.com/34-appointment-calendar-printable-2019/50%Daily2019-03-08 00:16
https://100frames.com/35-whats-happening-in-november-2019/50%Daily2019-03-08 00:16
https://100frames.com/30-printable-insanity-calendar/50%Daily2019-03-08 00:12
https://100frames.com/33-february-word-calendar/50%Daily2019-03-08 00:11
https://100frames.com/31-calendar-2019-august-september/50%Daily2019-03-08 00:09
https://100frames.com/34-printable-calendar-journal-style/50%Daily2019-03-08 00:07
https://100frames.com/30-free-printable-monthly-calendar-2019-with-holidays/50%Daily2019-03-08 00:05
https://100frames.com/18-fall-september-printable-calendar-2019/50%Daily2019-03-08 00:04
https://100frames.com/31-free-printable-calendar-numbers-for-april/50%Daily2019-03-08 00:02
https://100frames.com/33-insanity-calendar-printable/50%Daily2019-03-08 00:01
https://100frames.com/35-14th-november-2019-holiday/50%Daily2019-03-07 23:59
https://100frames.com/32-november-2019-calendar-printable-calendarpedia/50%Daily2019-03-07 23:56
https://100frames.com/31-holiday-calendar-june-2019/50%Daily2019-03-07 23:56
https://100frames.com/31-www-24calendar-com/50%Daily2019-03-07 23:53
https://100frames.com/33-printable-calendar-free-september-2019/50%Daily2019-03-07 23:50
https://100frames.com/33-november-calendar-print-out/50%Daily2019-03-07 23:51
https://100frames.com/30-day-of-the-dead-information/50%Daily2019-03-07 23:48
https://100frames.com/32-free-calendar-december-2019/50%Daily2019-03-07 23:45
https://100frames.com/30-printable-calendar-of-weird-holidays/50%Daily2019-03-07 23:46
https://100frames.com/33-catholic-liturgical-calendar-2019-2020/50%Daily2019-03-07 23:43
https://100frames.com/35-playboy-2019-calendar/50%Daily2019-03-07 23:41
https://100frames.com/32-lego-advent-calendar-2019-2020-toys-r-us/50%Daily2019-03-07 23:39
https://100frames.com/30-jan-feb-2019-calendar/50%Daily2019-03-07 23:36
https://100frames.com/24-big-grid-printable-calendar/50%Daily2019-03-07 23:35
https://100frames.com/31-page-per-day-planner/50%Daily2019-03-07 23:34
https://100frames.com/32-mini-printable-calendar-2019/50%Daily2019-03-07 23:32
https://100frames.com/30-walking-dead-2019-calendar/50%Daily2019-03-07 23:30
https://100frames.com/33-free-printable-weekly-calendar/50%Daily2019-03-07 23:30
https://100frames.com/35-printable-turkey-calendar-numbers/50%Daily2019-03-07 23:27
https://100frames.com/31-free-year-calendar-printable-2019/50%Daily2019-03-07 23:25
https://100frames.com/33-fun-creative-printables-for-making-calendars-2019/50%Daily2019-03-07 23:24
https://100frames.com/34-february-2019-calendar-printable-vertical/50%Daily2019-03-07 23:22
https://100frames.com/31-southwest-school-calendar/50%Daily2019-03-07 23:20
https://100frames.com/31-november-calendar-2019-2020-printable/50%Daily2019-03-07 23:19
https://100frames.com/27-philly-gay-calendar/50%Daily2019-03-07 23:17
https://100frames.com/33-teachers-corner-printable-calendar/50%Daily2019-03-07 23:15
https://100frames.com/35-september-and-october-calendar/50%Daily2019-03-07 23:15
https://100frames.com/30-insanity-workout-calendar-printable-free/50%Daily2019-03-07 23:12
https://100frames.com/34-blank-may-calendar/50%Daily2019-03-07 23:11
https://100frames.com/34-summer-solstice-2019-date/50%Daily2019-03-07 23:09
https://100frames.com/33-printable-2019-calendar-with-holidays-by-month/50%Daily2019-03-07 23:06
https://100frames.com/35-cherokee-county-school-calendar-2019-20/50%Daily2019-03-07 23:05
https://100frames.com/30-printable-teachers-calendars/50%Daily2019-03-07 23:04
https://100frames.com/35-nyc-calendar-2019/50%Daily2019-03-07 23:02
https://100frames.com/35-the-calendar-group/50%Daily2019-03-07 23:00
https://100frames.com/35-printable-calendar-free-month/50%Daily2019-03-07 23:00
https://100frames.com/31-printable-11x17-calendar/50%Daily2019-03-07 22:57
https://100frames.com/32-february-calendar-2019-with-holidays-printable/50%Daily2019-03-07 22:55
https://100frames.com/34-december-2019-calendar-christmas-printable-free/50%Daily2019-03-07 22:55
https://100frames.com/30-yoga-cats-calendar-2019/50%Daily2019-03-07 22:53
https://100frames.com/32-printable-monthly-calendar-may/50%Daily2019-03-07 22:51
https://100frames.com/32-free-printable-calendar-with-holidays-and-moon-phases/50%Daily2019-03-07 22:51
https://100frames.com/31-printable-calendar-june-july-august/50%Daily2019-03-07 22:49
https://100frames.com/23-october-and-november-2019-calendar/50%Daily2019-03-07 22:47
https://100frames.com/31-hood-county-printable-calendar-of-events/50%Daily2019-03-07 22:45
https://100frames.com/24-2019-payroll-calendar-biweekly/50%Daily2019-03-07 22:45
https://100frames.com/35-july-printable-calendar-2019-waterproof/50%Daily2019-03-07 22:41
https://100frames.com/35-free-printable-blank-calendar-pages/50%Daily2019-03-07 22:40